FW6272 Weather Reports


time (UTC)temp
C
wind
direction
speed
KPH
gust
KPH
rain 1hr
cm
rain 24hr
cm
rain mn
cm
humidity
%
barometer
mb
20260504195204 23 196 6.4 24.1 0.00 0.00 0.00 36 1009.8
20260504194704 23 206 9.7 20.9 0.00 0.00 0.00 35 1010.2
20260504193703 23 188 11.3 24.1 0.00 0.00 0.00 36 1010.2
20260504193204 23 202 4.8 16.1 0.00 0.00 0.00 35 1010.2
20260504192703 23 206 8.0 27.4 0.00 0.00 0.00 36 1010.2
20260504192204 23 217 8.0 24.1 0.00 0.00 0.00 37 1010.5
20260504191704 23 202 8.0 24.1 0.00 0.00 0.00 36 1010.3
20260504191203 23 223 3.2 16.1 0.00 0.00 0.00 35 1010.5
20260504190703 22 187 8.0 16.1 0.00 0.00 0.00 36 1010.5
20260504190203 22 77 3.2 24.1 0.00 0.00 0.00 38 1010.5
20260504185704 22 197 6.4 20.9 0.00 0.00 0.00 37 1010.5
20260504185203 22 208 9.7 20.9 0.00 0.00 0.00 36 1010.8
20260504184703 22 198 8.0 20.9 0.00 0.00 0.00 38 1010.7
20260504184204 22 232 4.8 27.4 0.00 0.00 0.00 36 1010.8
20260504183203 22 177 11.3 16.1 0.00 0.00 0.00 39 1010.8
20260504182703 22 177 9.7 16.1 0.00 0.00 0.00 39 1010.8
20260504182204 22 208 4.8 16.1 0.00 0.00 0.00 38 1011.2
20260504181703 22 212 4.8 16.1 0.00 0.00 0.00 38 1010.9
20260504181203 22 194 11.3 24.1 0.00 0.00 0.00 39 1011.2
20260504180703 21 210 11.3 27.4 0.00 0.00 0.00 39 1011.2
20260504180204 21 168 14.5 27.4 0.00 0.00 0.00 40 1011.2
20260504175203 21 217 8.0 16.1 0.00 0.00 0.00 40 1011.4
20260504174704 21 172 12.9 27.4 0.00 0.00 0.00 41 1011.8
20260504174203 21 183 11.3 24.1 0.00 0.00 0.00 41 1011.5
20260504173703 21 223 8.0 27.4 0.00 0.00 0.00 42 1011.6
20260504173203 21 218 11.3 27.4 0.00 0.00 0.00 41 1011.9
20260504172703 21 207 4.8 24.1 0.00 0.00 0.00 41 1011.8
20260504171703 21 224 4.8 16.1 0.00 0.00 0.00 39 1011.5
20260504171204 21 197 3.2 11.3 0.00 0.00 0.00 42 1011.9
20260504170704 21 197 8.0 20.9 0.00 0.00 0.00 41 1011.9
20260504170203 21 205 8.0 20.9 0.00 0.00 0.00 41 1011.9
20260504160203 20 226 6.4 24.1 0.00 0.00 0.00 40 1013.0
20260504150704 18 175 4.8 16.1 0.00 0.00 0.00 50 1013.2
20260504150203 18 216 4.8 11.3 0.00 0.00 0.00 51 1013.2
20260504141203 16 184 9.7 16.1 0.00 0.00 0.00 55 1013.2
20260504140203 16 188 11.3 16.1 0.00 0.00 0.00 55 1013.2
20260504130703 13 190 9.7 20.9 0.00 0.00 0.00 62 1013.9
20260504130204 13 184 11.3 20.9 0.00 0.00 0.00 63 1013.9
20260504120204 11 216 8.0 20.9 0.00 0.00 0.00 75 1014.1
20260504110703 8 204 6.4 16.1 0.00 0.00 0.00 81 1014.2
20260504100205 8 170 1.6 8.0 0.00 0.00 0.00 78 1014.2
20260504081704 5 157 0.0 0.0 0.00 0.00 0.00 91 1014.2
20260504081203 5 157 0.0 0.0 0.00 0.00 0.00 90 1013.9
20260504080704 5 158 0.0 0.0 0.00 0.00 0.00 90 1014.2
20260504080204 5 161 0.0 0.0 0.00 0.00 0.00 89 1014.2
20260504070204 5 154 0.0 0.0 0.00 0.00 0.00 89 1013.9
20260504060202 5 170 0.0 0.0 0.00 0.00 0.00 86 1013.9
20260504050702 6 165 0.0 0.0 0.00 0.00 0.00 83 1013.5
20260504045202 6 154 0.0 3.2 0.00 0.00 0.00 82 1013.5
20260504044702 6 169 0.0 8.0 0.00 0.00 0.00 84 1013.6
20260504044202 6 175 0.0 0.0 0.00 0.00 0.00 82 1013.5
20260504043702 7 175 0.0 0.0 0.00 0.00 0.00 82 1013.5
20260504043202 7 176 0.0 0.0 0.00 0.00 0.00 81 1013.5
20260504042702 7 176 0.0 0.0 0.00 0.00 0.00 78 1013.5
20260504041703 8 183 0.0 0.0 0.00 0.00 0.00 76 1013.5
20260504041203 8 186 0.0 0.0 0.00 0.00 0.00 76 1013.5
20260504040703 8 175 0.0 0.0 0.00 0.00 0.00 76 1013.5
20260504040202 8 175 0.0 0.0 0.00 0.00 0.00 76 1013.5
20260504035702 8 175 0.0 0.0 0.00 0.00 0.00 73 1013.5
20260504035202 7 180 0.0 0.0 0.00 0.00 0.00 65 1013.5
20260504034702 7 191 0.0 0.0 0.00 0.00 0.00 63 1013.3
20260504034202 7 197 0.0 0.0 0.00 0.00 0.00 63 1013.3
20260504033702 7 180 0.0 3.2 0.00 0.00 0.00 64 1013.5
20260504033202 6 191 0.0 0.0 0.00 0.00 0.00 69 1013.4
20260504032202 7 178 0.0 0.0 0.00 0.00 0.00 81 1013.2
20260504031702 7 178 0.0 0.0 0.00 0.00 0.00 81 1013.2
20260504030702 7 178 0.0 0.0 0.00 0.00 0.00 79 1013.2
20260504030202 7 178 0.0 0.0 0.00 0.00 0.00 77 1013.2
20260504025702 7 178 0.0 0.0 0.00 0.00 0.00 76 1013.0
20260504025202 8 178 0.0 0.0 0.00 0.00 0.00 76 1013.2
20260504024703 8 178 0.0 0.0 0.00 0.00 0.00 75 1013.3
20260504024202 8 178 0.0 0.0 0.00 0.00 0.00 75 1013.2
20260504023702 8 178 0.0 0.0 0.00 0.00 0.00 74 1013.2
20260504022702 9 178 0.0 0.0 0.00 0.00 0.00 72 1013.2
20260504022202 9 178 0.0 0.0 0.00 0.00 0.00 71 1013.2
20260504021703 9 178 0.0 0.0 0.00 0.00 0.00 67 1013.2
20260504021202 10 178 0.0 0.0 0.00 0.00 0.00 65 1013.2
20260504020702 10 179 0.0 0.0 0.00 0.00 0.00 64 1013.2
20260504015202 10 181 0.0 0.0 0.00 0.00 0.00 55 1013.2
20260504014703 10 186 0.0 0.0 0.00 0.00 0.00 56 1013.2
20260504014203 10 181 0.0 3.2 0.00 0.00 0.00 62 1013.2
20260504013203 10 182 0.0 0.0 0.00 0.00 0.00 62 1012.9
20260504012702 11 182 0.0 0.0 0.00 0.00 0.00 58 1012.9
20260504011702 11 184 0.0 0.0 0.00 0.00 0.00 57 1012.9
20260504011202 11 183 0.0 0.0 0.00 0.00 0.00 55 1012.9
20260504010703 12 183 0.0 0.0 0.00 0.00 0.00 51 1012.5
20260504010202 12 183 0.0 0.0 0.00 0.00 0.00 51 1012.8
20260504005202 12 183 0.0 0.0 0.00 0.00 0.00 49 1012.7
20260504004702 12 183 0.0 0.0 0.00 0.00 0.00 46 1012.5
20260504004203 12 184 0.0 0.0 0.00 0.00 0.00 45 1012.5
20260504003702 13 184 0.0 0.0 0.00 0.00 0.00 46 1012.5
20260504002702 13 167 0.0 3.2 0.00 0.00 0.00 42 1012.2
20260504002203 13 184 0.0 8.0 0.00 0.00 0.00 42 1012.2
20260504001703 13 199 3.2 8.0 0.00 0.00 0.00 41 1012.2
20260504001203 13 186 0.0 8.0 0.00 0.00 0.00 42 1012.2
20260504000702 13 188 1.6 3.2 0.00 0.00 0.00 41 1011.9
20260503235702 14 193 0.0 3.2 0.00 0.00 0.00 40 1011.9
20260503234202 15 207 3.2 11.3 0.00 0.00 0.00 37 1011.9
20260503233702 15 202 3.2 11.3 0.00 0.00 0.00 37 1011.9
20260503233202 15 316 1.6 11.3 0.00 0.00 0.00 37 1011.9
20260503232703 15 209 1.6 16.1 0.00 0.00 0.00 37 1011.9
20260503232203 15 205 1.6 8.0 0.00 0.00 0.00 36 1011.5
20260503231702 16 227 4.8 16.1 0.00 0.00 0.00 35 1011.6
20260503231202 16 206 1.6 3.2 0.00 0.00 0.00 35 1011.5
20260503230703 16 195 3.2 8.0 0.00 0.00 0.00 36 1011.5
20260503230203 16 197 0.0 11.3 0.00 0.00 0.00 35 1011.5
20260503225202 16 174 4.8 16.1 0.00 0.00 0.00 33 1011.5
20260503224702 16 152 1.6 11.3 0.00 0.00 0.00 34 1011.5
20260503224202 16 207 3.2 16.1 0.00 0.00 0.00 33 1011.5
20260503223702 16 176 1.6 16.1 0.00 0.00 0.00 33 1011.5
20260503223203 16 211 1.6 8.0 0.00 0.00 0.00 33 1011.5
20260503222702 16 180 1.6 8.0 0.00 0.00 0.00 32 1011.2
20260503222202 16 264 1.6 16.1 0.00 0.00 0.00 33 1011.5
20260503221702 16 18 3.2 16.1 0.00 0.00 0.00 33 1011.5
20260503220703 16 196 4.8 16.1 0.00 0.00 0.00 34 1011.3
20260503220202 16 197 9.7 24.1 0.00 0.00 0.00 34 1011.5
20260503215702 16 22 3.2 11.3 0.00 0.00 0.00 33 1011.3
20260503215202 16 92 4.8 16.1 0.00 0.00 0.00 33 1011.9
20260503214702 16 263 4.8 20.9 0.00 0.00 0.00 32 1011.9
20260503213704 16 210 8.0 20.9 0.00 0.00 0.00 34 1011.5
20260503213202 16 254 12.9 24.1 0.00 0.00 0.00 32 1011.5
20260503212202 16 196 3.2 20.9 0.00 0.00 0.00 33 1011.5
20260503211203 16 273 4.8 24.1 0.00 0.00 0.00 33 1011.5
20260503210702 16 224 9.7 24.1 0.00 0.00 0.00 34 1011.5
20260503210203 16 147 4.8 20.9 0.00 0.00 0.00 34 1011.5
20260503205703 16 225 3.2 16.1 0.00 0.00 0.00 35 1011.5
20260503205202 16 123 4.8 24.1 0.00 0.00 0.00 34 1011.5
20260503204702 16 197 8.0 24.1 0.00 0.00 0.00 34 1011.6
20260503204204 16 187 9.7 35.4 0.00 0.00 0.00 33 1011.5
20260503203703 16 24 4.8 16.1 0.00 0.00 0.00 34 1011.9
20260503203203 16 227 8.0 27.4 0.00 0.00 0.00 34 1011.5
20260503201704 16 338 4.8 20.9 0.00 0.00 0.00 35 1011.3
20260503200703 16 219 3.2 16.1 0.00 0.00 0.00 34 1011.7
20260503200202 16 220 6.4 20.9 0.00 0.00 0.00 34 1011.5
20260503195703 16 194 8.0 20.9 0.00 0.00 0.00 34 1011.8